Location: Bocchiglicro
(39.4167°N, 16.7500°E)
Time: 15:37:55
(UTC+00:00)

Cosmos 489 Rocket - Pass Details

Date: 07 June 2020
Orbit: 952 x 984 km, 74.0° (Epoch: 11 July)

Event Time Altitude Azimuth Distance (km) Brightness Sun altitude
Exits shadow 00:18:07 53° 230° (SW) 1,162 4.5 -24.6°
Maximum altitude 00:19:31 70° 290° (WNW) 1,018 4.5 -24.5°
Drops below altitude 10° 00:25:47 10° 14° (NNE) 2,710 7.9 -24.0°
Sets 00:28:21 0° 17° (NNE) 3,665 8.9 -23.8°
